Volver al catálogo

SL-12 R/B

AUX MOTOR

ActivoHEO
NORAD 15053·ROCKET BODY·🇷🇺 Russia

Lanzado May 19, 1984 desde Baikonur Cosmodrome

Loading…

Próximos Pases (próximas 24 horas)

TLE

ActualizadoSource: Space-Track

Época: Sep 14, 2026, 20:29 UTC

1 15053U 84047G   26257.85383128  .00000561  00000-0  45007-3 0  9998
2 15053  52.0917  55.8088 5502898  66.6677 340.8857  4.70635164688293

Sigue SL-12 R/B en tiempo real con AllMySat

Download on the App Store